Stations météo

réclame
Mon MeteoGroup
Yeovilton, Grande-Bretagne (3853): Température de l'air & dewpoint: 08.08.2020 20:00:00 - 14.08.2020 20:00:00 (BST)Yeovilton, Grande-Bretagne (3853): Température de l'air -20cm & Température de l'air -100cm: 08.08.2020 20:00:00 - 14.08.2020 20:00:00 (BST)Yeovilton, Grande-Bretagne (3853): Vitesse du vent: 08.08.2020 20:00:00 - 14.08.2020 20:00:00 (BST)Yeovilton, Grande-Bretagne (3853): Direction du vent: 08.08.2020 20:00:00 - 14.08.2020 20:00:00 (BST)Yeovilton, Grande-Bretagne (3853): reduced air pressure: 08.08.2020 20:00:00 - 14.08.2020 20:00:00 (BST)Yeovilton, Grande-Bretagne (3853): visibility: 08.08.2020 20:00:00 - 14.08.2020 20:00:00 (BST)Yeovilton, Grande-Bretagne (3853): Ensoleillement: 08.08.2020 20:00:00 - 14.08.2020 20:00:00 (BST)Yeovilton, Grande-Bretagne (3853): Quantités de précipitations: 08.08.2020 20:00:00 - 14.08.2020 20:00:00 (BST)
Date & Time tt [°C] td [°C] tt -20cm [°C] tt -100cm [°C] ff [km/h] ff [knt] dd ppp [hPa] vv [km] sd [min] rr [mm]
14.08.2020 20:00:00 18,8 17,0 - - 5 3 NNW 1014,9 8 0 0,0
14.08.2020 19:00:00 19,0 17,2 - - 8 4 NW 1014,7 7 0 0,0
14.08.2020 18:00:00 18,9 17,1 - - 8 4 N 1014,7 8 0 0,0
14.08.2020 17:00:00 18,8 17,1 - - 13 7 NNE 1014,5 8 0 0,0
14.08.2020 16:00:00 19,2 17,5 - - 11 6 N 1014,4 11 0 0,0
14.08.2020 15:00:00 19,4 17,3 - - 5 3 WNW 1014,3 15 0 0,0
14.08.2020 14:00:00 19,1 17,3 - - 4 2 NE 1014,6 10 0 0,0
14.08.2020 13:00:00 18,9 17,1 - - 11 6 NNE 1014,7 40 0 0,0
14.08.2020 12:00:00 18,3 17,5 - - 8 4 NNE 1014,3 9 0 2,8
14.08.2020 11:00:00 18,0 17,0 - - 8 4 NNE 1014,2 5 0 0,4
14.08.2020 10:00:00 18,2 17,0 20,4 18,5 16 9 NNE 1014,1 5 0 0,0
14.08.2020 09:00:00 18,8 17,5 - - 15 8 NNE 1013,6 8 0 0,0
14.08.2020 08:00:00 18,2 17,3 - - 13 7 ENE 1013,4 6 0 0,0
14.08.2020 07:00:00 18,4 17,4 - - 11 6 NE 1013,1 6 0 0,0
14.08.2020 06:00:00 18,8 17,8 - - 9 5 NE 1012,8 7 0 0,0
14.08.2020 05:00:00 19,1 18,3 - - 8 4 N 1012,6 4,0 0 0,0
14.08.2020 04:00:00 19,0 18,2 - - 9 5 N 1012,7 3,0 0 0,0
14.08.2020 03:00:00 19,2 18,3 - - 8 4 W 1012,8 3,5 0 0,0
14.08.2020 02:00:00 19,2 18,1 - - 5 3 NNE 1013,0 4,7 0 0,6
14.08.2020 01:00:00 19,4 18,1 - - 4 2 N 1013,1 5 - 0,2
14.08.2020 00:00:00 20,0 18,6 - - 8 4 ENE 1013,1 7 0 0,0
13.08.2020 23:00:00 20,6 19,2 - - 9 5 ENE 1013,1 7 0 0,2
13.08.2020 22:00:00 20,8 19,7 - - 5 3 NNE 1013,0 6 0 0,0
13.08.2020 21:00:00 21,0 19,9 - - 8 4 NNE 1012,5 5 0 0,8
13.08.2020 20:00:00 21,3 19,6 - - 8 4 WNW 1012,0 14 0 0,0
13.08.2020 19:00:00 21,5 19,2 - - 4 2 NW 1012,1 8 0 0,0
13.08.2020 18:00:00 21,0 18,1 - - 4 2 ENE 1012,3 8 0 0,2
13.08.2020 17:00:00 20,1 17,9 - - 13 7 ESE 1012,0 5 0 3,8
13.08.2020 16:00:00 24,0 19,3 - - 8 4 NW 1011,8 5 0 0,0
13.08.2020 15:00:00 23,7 19,1 - - 13 7 N 1012,1 5 0 0,0
13.08.2020 14:00:00 23,9 19,0 - - 22 12 NNE 1012,1 6 6 0,0
13.08.2020 13:00:00 24,0 19,4 - - 11 6 N 1012,2 7 0 0,0
13.08.2020 12:00:00 23,8 19,2 - - 8 4 NNE 1012,0 8 0 0,0
13.08.2020 11:00:00 22,9 18,7 - - 8 4 NE 1012,3 8 0 0,0
13.08.2020 10:00:00 22,7 19,2 20,5 18,2 5 3 NNE 1011,9 8 0 0,0
13.08.2020 09:00:00 21,0 18,9 - - 8 4 NNE 1011,9 11 0 0,0
13.08.2020 08:00:00 19,7 18,1 - - 0 0 N 1011,9 11 6 0,0
13.08.2020 07:00:00 18,3 17,2 - - 5 3 ESE 1011,7 9 0 0,0
13.08.2020 06:00:00 18,4 16,7 - - 2 1 SSE 1011,5 9 0 0,0
13.08.2020 05:00:00 19,5 17,4 - - 5 3 NNE 1011,5 18 0 0,0
13.08.2020 04:00:00 19,8 17,5 - - 4 2 NNW 1011,7 15 0 0,0
13.08.2020 03:00:00 18,9 17,0 - - 2 1 SSW 1012,3 13 0 0,0
13.08.2020 02:00:00 20,1 17,4 - - 9 5 SE 1012,2 20 0 0,0
13.08.2020 01:00:00 20,0 17,1 - - 2 1 SSW 1011,6 17 - 0,0
13.08.2020 00:00:00 21,0 17,2 - - 8 4 N 1012,0 24 0 0,0
12.08.2020 23:00:00 21,5 17,1 - - 15 8 SSW 1012,0 40 0 0,0
12.08.2020 22:00:00 22,0 17,2 - - 8 4 SE 1011,9 10 0 0,0
12.08.2020 21:00:00 23,1 17,3 - - 4 2 SE 1011,1 10 0 0,0
12.08.2020 20:00:00 24,4 16,9 - - 13 7 SSW 1010,8 10 0 0,0
12.08.2020 19:00:00 28,6 17,0 - - 18 10 SSW 1010,7 10 30 0,0
12.08.2020 18:00:00 31,1 17,8 - - 13 7 SSW 1010,2 10 60 0,0
12.08.2020 17:00:00 32,3 16,6 - - 15 8 SSE 1010,7 10 60 0,0
12.08.2020 16:00:00 32,5 17,1 - - 11 6 S 1011,4 10 36 0,0
12.08.2020 15:00:00 32,3 15,9 - - 11 6 SSW 1011,5 15 60 0,0
12.08.2020 14:00:00 32,4 15,9 - - 15 8 S 1011,8 10 60 0,0
12.08.2020 13:00:00 31,3 17,1 - - 15 8 SSE 1012,2 10 60 0,0
12.08.2020 12:00:00 29,7 17,8 - - 13 7 S 1012,6 10 42 0,0
12.08.2020 11:00:00 28,5 19,2 - - 11 6 SE 1012,9 10 60 0,0
12.08.2020 10:00:00 25,0 19,5 20,0 18,0 2 1 NNW 1012,8 8 60 0,0
12.08.2020 09:00:00 22,4 19,2 - - 4 2 NE 1012,7 11 60 0,0
12.08.2020 08:00:00 19,4 18,4 - - 4 2 NNW 1012,8 6 48 0,0
12.08.2020 07:00:00 17,2 16,7 - - 4 2 WNW 1013,0 4,8 0 0,0
12.08.2020 06:00:00 16,5 15,9 - - 4 2 SE 1013,2 3,6 0 0,0
12.08.2020 05:00:00 16,9 16,4 - - 0 0 N 1013,1 4,6 0 0,0
12.08.2020 04:00:00 17,3 16,5 - - 0 0 N 1013,3 5 0 0,0
12.08.2020 03:00:00 17,6 16,7 - - 5 3 W 1013,5 5 0 0,0
12.08.2020 02:00:00 18,7 17,4 - - 0 0 N 1013,3 7 0 0,0
12.08.2020 01:00:00 19,6 17,7 - - 9 5 ENE 1013,2 7 - 0,0
12.08.2020 00:00:00 20,3 17,9 - - 4 2 N 1014,1 6 0 0,0
11.08.2020 23:00:00 20,6 17,9 - - 13 7 N 1013,8 6 0 0,0
11.08.2020 22:00:00 21,7 18,5 - - 5 3 NW 1014,6 6 0 0,0
11.08.2020 21:00:00 22,7 18,8 - - 8 4 W 1014,0 8 0 0,0
11.08.2020 20:00:00 24,5 18,9 - - 11 6 WNW 1013,5 10 54 0,0
11.08.2020 19:00:00 28,5 20,2 - - 13 7 NW 1012,9 10 60 0,0
11.08.2020 18:00:00 29,4 20,0 - - 16 9 NW 1012,7 10 60 0,0
11.08.2020 17:00:00 30,7 20,4 - - 13 7 NW 1012,8 10 42 0,0
11.08.2020 16:00:00 30,6 17,8 - - 5 3 SE 1013,4 10 36 0,0
11.08.2020 15:00:00 30,4 18,0 - - 5 3 WSW 1013,7 10 54 0,0
11.08.2020 14:00:00 30,0 19,2 - - 4 2 ESE 1014,2 10 60 0,0
11.08.2020 13:00:00 28,4 19,7 - - 5 3 NW 1014,5 10 60 0,0
11.08.2020 12:00:00 25,8 19,4 - - 4 2 NE 1014,8 8 60 0,0
11.08.2020 11:00:00 23,5 19,5 - - 4 2 NE 1015,1 6 54 0,0
11.08.2020 10:00:00 19,4 19,1 19,4 17,9 4 2 NE 1015,2 4,0 0 0,0
11.08.2020 09:00:00 17,6 17,4 - - 5 3 W 1015,3 0,4 0 0,0
11.08.2020 08:00:00 17,4 17,2 - - 2 1 NNW 1015,2 0,1 0 0,0
11.08.2020 07:00:00 17,1 16,9 - - 2 1 N 1015,1 0,2 0 0,0
11.08.2020 06:00:00 15,3 15,1 - - 2 1 NW 1014,7 2,8 0 0,0
11.08.2020 05:00:00 14,7 14,2 - - 4 2 S 1014,5 0,1 0 0,0
11.08.2020 04:00:00 15,7 15,2 - - 2 1 N 1014,3 5 0 0,0
11.08.2020 03:00:00 16,3 15,6 - - 5 3 SE 1014,5 4,7 0 0,0
11.08.2020 02:00:00 17,5 16,5 - - 2 1 W 1014,8 8 0 0,0
11.08.2020 01:00:00 18,8 17,1 - - 8 4 NW 1014,6 11 - 0,0
11.08.2020 00:00:00 19,5 17,3 - - 13 7 NNW 1014,5 7 0 0,0
10.08.2020 23:00:00 20,0 17,7 - - 11 6 NW 1014,6 5 0 0,0
10.08.2020 22:00:00 21,2 18,1 - - 13 7 WNW 1014,4 6 0 0,0
10.08.2020 21:00:00 22,3 18,5 - - 9 5 W 1013,8 6 0 0,0
10.08.2020 20:00:00 23,3 18,4 - - 9 5 WSW 1013,5 6 36 0,0
10.08.2020 19:00:00 23,9 18,8 - - 15 8 W 1013,2 6 54 0,0
10.08.2020 18:00:00 23,3 18,4 - - 9 5 NW 1013,1 6 0 0,0
10.08.2020 17:00:00 22,7 18,3 - - 18 10 N 1012,9 8 0 0,0
10.08.2020 16:00:00 23,1 18,0 - - 18 10 NW 1014,2 10 6 0,0
10.08.2020 15:00:00 22,5 17,6 - - 28 15 NW 1014,1 10 6 0,0
10.08.2020 14:00:00 22,8 17,6 - - 22 12 NW 1014,4 10 18 0,0
10.08.2020 13:00:00 23,8 18,8 - - 11 6 NW 1014,1 10 6 0,0
10.08.2020 12:00:00 21,4 17,6 - - 9 5 NNW 1014,2 8 6 0,0
10.08.2020 11:00:00 21,0 17,6 - - 18 10 NE 1013,9 6 0 0,0
10.08.2020 10:00:00 19,7 17,3 19,2 17,7 21 11 NNE 1014,0 6 6 0,0
10.08.2020 09:00:00 19,4 16,7 - - 26 14 NE 1014,4 16 0 0,0
10.08.2020 08:00:00 19,3 16,8 - - 11 6 NNW 1014,2 13 24 0,0
10.08.2020 07:00:00 17,9 16,9 - - 5 3 NNW 1013,9 10 0 0,0
10.08.2020 06:00:00 17,0 16,2 - - 8 4 W 1014,2 6 0 0,0
10.08.2020 05:00:00 17,3 16,4 - - 8 4 WNW 1014,4 6 0 0,0
10.08.2020 04:00:00 17,0 16,0 - - 4 2 W 1014,8 6 0 0,0
10.08.2020 03:00:00 17,4 16,5 - - 8 4 WNW 1015,1 7 0 0,0
10.08.2020 02:00:00 17,3 16,4 - - 8 4 WNW 1015,3 6 0 0,0
10.08.2020 01:00:00 17,2 16,0 - - 8 4 W 1016,0 7 - 0,0
10.08.2020 00:00:00 17,6 15,7 - - 11 6 WNW 1016,4 7 0 0,0
09.08.2020 23:00:00 18,7 15,7 - - 11 6 WNW 1016,3 9 0 0,0
09.08.2020 22:00:00 19,6 16,0 - - 15 8 NW 1016,4 14 0 0,0
09.08.2020 21:00:00 21,5 16,4 - - 11 6 NW 1016,1 30 0 0,0
09.08.2020 20:00:00 22,9 16,8 - - 15 8 NW 1016,0 40 12 0,0
09.08.2020 19:00:00 25,2 17,3 - - 15 8 NNW 1015,9 50 60 0,0
09.08.2020 18:00:00 26,0 17,6 - - 15 8 NNW 1016,0 30 48 0,0
09.08.2020 17:00:00 26,0 17,2 - - 11 6 NNW 1016,7 40 54 0,0
09.08.2020 16:00:00 25,4 17,2 - - 8 4 NE 1017,1 10 48 0,0
09.08.2020 15:00:00 24,1 16,4 - - 15 8 NNW 1017,4 26 60 0,0
09.08.2020 14:00:00 23,8 16,6 - - 13 7 NNW 1017,6 30 60 0,0
09.08.2020 13:00:00 22,3 16,1 - - 15 8 N 1018,0 23 60 0,0
09.08.2020 12:00:00 21,0 15,4 - - 11 6 N 1018,5 10 60 0,0
09.08.2020 11:00:00 20,0 15,5 - - 16 9 NNE 1018,8 22 54 0,0
09.08.2020 10:00:00 19,6 16,4 19,0 17,5 15 8 NNE 1019,2 10 12 0,0
09.08.2020 09:00:00 17,7 15,1 - - 18 10 NE 1019,4 16 0 0,0
09.08.2020 08:00:00 16,9 14,9 - - 15 8 NNE 1019,5 14 0 0,0
09.08.2020 07:00:00 16,6 14,8 - - 9 5 N 1019,5 11 0 0,0
09.08.2020 06:00:00 15,8 14,4 - - 11 6 NE 1019,4 10 0 0,0
09.08.2020 05:00:00 15,8 14,3 - - 11 6 NNE 1019,3 9 0 0,0
09.08.2020 04:00:00 16,6 14,6 - - 13 7 NNE 1019,4 20 0 0,0
09.08.2020 03:00:00 17,2 14,5 - - 8 4 NE 1019,4 23 0 0,0
09.08.2020 02:00:00 18,5 15,1 - - 9 5 N 1019,2 25 0 0,0
09.08.2020 01:00:00 18,8 16,1 - - 8 4 N 1019,2 10 - 0,0
09.08.2020 00:00:00 18,1 16,2 - - 4 2 NNE 1019,2 10 0 0,0
08.08.2020 23:00:00 19,0 16,9 - - 2 1 WNW 1019,1 30 0 0,0
08.08.2020 22:00:00 20,0 17,5 - - 8 4 N 1019,2 45 0 0,0
08.08.2020 21:00:00 21,2 17,4 - - 8 4 NW 1018,9 35 12 0,0
08.08.2020 20:00:00 22,6 17,6 - - 16 9 NW 1018,5 45 60 0,0

tt = Température de l'air
td = dewpoint
tt -20cm = Température de l'air -20cm
tt -100cm = Température de l'air -100cm
ff = Vitesse du vent
dd = Direction du vent
ppp = reduced air pressure
vv = visibility
sd = Ensoleillement
rr = Quantités de précipitations

stations d'obs. à proximité